STARLINK-37616, 69040

Orbit data source: Space-Track

STARLINK-37616, 69040 is a payload satellite owned by SpaceX/Seattle (US) in SSO that was launched on Wed, 06 May 2026 UTC via an FALCON 9 launch vehicle from the Air Force Western Test Range (AFWTR). Payload-class satellites include a variety of spacecraft equipped with specific instruments for various scientific and technological missions. These include communications satellites like Starlink; space stations such as the ISS; scientific satellites like the Hubble; Earth observation satellites from companies like Planet Labs, Umbra, and HawkEye 360; GPS; miniature CubeSats for education and research; and military/defense satellites.

Loading next visibility...
Identifier
69040, 2026-101R
Orbit
SSO
Country
Flag of USUS
Related business
Manufacturer
SpaceX/Seattle
Mission
Operational spacecraft
Bus & Motor
STARLINK V2MO, Unknown motor
Mass
575 kg wet, ~530 kg dry
Launch date (UTC)
2026-05-06 (1 month ago)
Launch vehicle
FALCON 9
Launch site
Air Force Western Test Range (AFWTR)
Object type
Payload
Rocket body
Debris
Shape & HBR
Unknown
Radar Cross Section
Large (>1 m²)

Expand to show TLE details & history
Last TLE update: 1 week ago

TLE from 1 week ago
0 STARLINK-37616
1 69040U 26101R   26155.25004630 -.02471648  00000-0 -74802-1 0  9994
2 69040  97.2842  10.2395 0001621  83.8867  22.3976 15.37993738  5877
Epoch: 2026-06-04T06:00Z
TLE epoch observation values (Epoch: 2026-06-04T06:00:04.000Z)
Latitude
72.26845°
Longitude
-129.04924°
Altitude
463.485 km
Speed
7.642 km/s
True Right ascension
14h 14m 39s
True Declination
72° 09' 51"
Sunlit
Object was in daylight at epoch
Visualization orbit readout
Latitude
Unknown
Longitude
Unknown
Altitude
Unknown
Speed
Unknown
Apparent Right ascension
Unknown
Apparent Declination
Unknown
Sunlit
N/A
Visualization observer readout
Local Sidereal Time
02:39:57
Azimuth
Unknown
Elevation
Unknown
Doppler factor
Unknown
Orbital elements
Apogee altitude
450.086 km
Perigee altitude
447.873 km
Semi-major axis
6,827.116 km
Eccentricity
0.00016
Inclination
97.2842°
RAAN
10.2395°
Arg. of periapsis
83.8867°
True anomaly
22.40468°
Mean anomaly
22.3976°
Eccentric anomaly
22.40114°
Mean motion
3.84758 °/min
Orbital period
93.57 mins
BSTAR
-0.074802
Loading maneuver chart data...
Computing Atmospheric mass density...
Loading historical data...
Loading historical data...
Loading historical data...
Loading historical data...
Loading historical data...
Loading historical data...
Loading historical data...

Documentation

Showing up to 5 results
|